Regional Weather Roundup
Issued by NWS

Home | Current Version | Previous Version | Graphics & Text | Print | Product List | Glossary On
Versions: 1 2 3 4 5 6 7 8 9 10 11 12 13 14 15 16 17 18 19 20 21 22 23 24 25 26 27 28 29 30 31 32 33 34 35 36 37 38 39 40 41 42 43 44 45 46 47 48 49 50
000
ASUS43 KLMK 230302
RWRKY
KENTUCKY REGIONAL WEATHER ROUNDUP
NATIONAL WEATHER SERVICE LOUISVILLE KY
1100 PM EDT WED OCT 22 2014

NOTE "FAIR" INDICATES FEW OR NO CLOUDS BELOW 12,000 FEET
WITH NO SIGNIFICANT WEATHER AND/OR OBSTRUCTIONS TO VISIBILITY.

KYZ001>023-026-027-061>063-070>075-230400-
WESTERN AND SOUTH CENTRAL KENTUCKY

CITY           SKY/WX    TMP DP  RH WIND       PRES   REMARKS
PADUCAH        CLEAR     43  40  89 CALM      30.22R
HENDERSON      CLEAR    N/A N/A N/A CALM      30.23R
OWENSBORO      CLEAR     50  42  73 CALM      30.24R
HOPKINSVILLE   CLEAR     47  42  84 NE3       30.22S
BOWLING GREEN  CLEAR     47  41  80 E6        30.24S
GLASGOW        CLEAR     45  39  81 E3        30.24S
$$

KYZ024-025-028>034-038-045-046-053-230400-
NORTH CENTRAL KENTUCKY

CITY           SKY/WX    TMP DP  RH WIND       PRES   REMARKS
LOUISVILLE/SDF CLEAR     50  41  71 E10       30.25S
LOUISVILLE/LOU CLEAR     49  40  71 CALM      30.26S
FORT KNOX      CLEAR     46  40  79 NE5       30.23S
$$

KYZ035>037-039>044-047>052-055>060-089>105-230400-
NORTHEAST KENTUCKY

CITY           SKY/WX    TMP DP  RH WIND       PRES   REMARKS
LEXINGTON      CLOUDY    52  40  63 NE9       30.26F
COVINGTON      CLOUDY    50  39  66 NE9       30.26F
FRANKFORT      CLEAR     48  40  73 NE5       30.26S
$$

KYZ054-064>069-076>088-106>120-230400-
SOUTHEAST KENTUCKY

CITY           SKY/WX    TMP DP  RH WIND       PRES   REMARKS
JACKSON        CLOUDY    48  41  76 CALM      30.24S
LONDON         CLOUDY    49  42  77 N3        30.24F
SOMERSET       CLOUDY    46  41  81 CALM      30.27S
MIDDLESBORO    CLOUDY    48  41  77 CALM      30.24S
MONTICELLO     CLOUDY    48  43  83 CALM      30.26F
$$




USA.gov is the U.S. government's official web portal to all federal, state and local government web resources and services.